Location: Paris
(48.6709°N, 2.3750°E)
Time: 22:16:24
(UTC+01:00)

X-37B - Visible Passes

Search period start: 24 January 2022 00:00
Search period end: 03 February 2022 00:00
Orbit: 334 x 337 km, 45.0° (Epoch: 11 January)

Date Brightness Start Highest point End Pass type
(mag) Time Alt. Az. Time Alt. Az. Time Alt. Az.
27 Jan 3.6 20:10:58 10° SW 20:11:01 10° SW 20:11:01 10° SW visible
28 Jan 2.6 18:57:03 10° S 18:58:36 14° SSE 18:59:29 12° SE visible
29 Jan 1.9 19:16:25 10° SW 19:18:46 23° SSE 19:19:08 23° SSE visible
30 Jan 1.5 19:36:24 10° WSW 19:38:45 33° S 19:38:45 33° S visible
31 Jan 2.1 18:21:52 10° SW 18:24:12 23° SSE 18:26:33 10° ESE visible
31 Jan 2.2 19:56:38 10° WSW 19:58:21 28° SW 19:58:21 28° SW visible
01 Feb 1.5 18:41:50 10° WSW 18:44:27 33° S 18:46:43 12° ESE visible
01 Feb 3.2 20:16:59 10° WSW 20:17:57 18° WSW 20:17:57 18° WSW visible
02 Feb 1.3 19:02:04 10° WSW 19:04:45 39° S 19:06:20 20° ESE visible
02 Feb 4.0 20:37:28 10° WSW 20:37:34 11° WSW 20:37:34 11° WSW visible
